Auburn, CA

2:07 PM PST on December 07, 2019 (GMT -0800)
Auburn Municipal

Weather History for KAUN - October, 2019

Change the Weather History Date:

Tuesday, October 8, 2019

  Actual Average Record
Temperature  
Mean Temperature 72 °F -  
Max Temperature 82 °F 79 °F 95 °F (1980)
Min Temperature 62 °F 52 °F 36 °F (1949)
Cooling Degree Days 7    
Growing Degree Days 22 (Base 50)    
Moisture  
Dew Point 35 °F    
Average Humidity 27    
Maximum Humidity 45    
Minimum Humidity 18    
Precipitation  
Precipitation 0.00 in - - ()
Sea Level Pressure  
Sea Level Pressure 29.89 in    
Wind  
Wind Speed 4 mph ()    
Max Wind Speed 12 mph    
Max Gust Speed 12 mph    
Visibility 10.0 miles    
Events      
Averages and records for this station are not official NWS values.
T = Trace of Precipitation, MM = Missing Value Source: Averaged Metar Reports

Daily Weather History Graph

Daily Weather History Graph

Search for Another Location

Airport or City:

Astronomy

Oct. 08, 2019 Rise Set
Actual Time 7:06 AM PDT 6:36 PM PDT
Civil Twilight 6:40 AM PDT 7:02 PM PDT
Nautical Twilight 6:09 AM PDT 7:33 PM PDT
Astronomical Twilight 5:38 AM PDT 8:04 PM PDT
Moon 4:35 PM PDT (10/8) 2:04 AM PDT (10/8)
Length of Visible Light 12h 22m
Length of Day
11h 29m
Waxing Gibbous, 78% of the Moon is Illuminated
Oct 8
Waxing Gibbous
Oct 13
Full
Oct 21
Last Quarter
Oct 27
New
Nov 4
First Quarter

Hourly Weather History & Observations

Time (PDT) Temp. Dew Point Humidity Pressure Visibility Wind Dir Wind Speed Gust Speed Precip Events Conditions
12:35 AM 66.2 °F 33.8 °F 30% 29.95 in 10.0 mi East 8.1 mph - N/A   Clear
12:55 AM 64.4 °F 33.8 °F 32% 29.95 in 10.0 mi East 4.6 mph - N/A   Clear
1:15 AM 66.2 °F 33.8 °F 30% 29.94 in 10.0 mi East 8.1 mph - N/A   Clear
1:35 AM 66.2 °F 32.0 °F 28% 29.94 in 10.0 mi East 8.1 mph - N/A   Clear
1:55 AM 64.4 °F 32.0 °F 30% 29.94 in 10.0 mi East 8.1 mph - N/A   Clear
2:15 AM 64.4 °F 32.0 °F 30% 29.94 in 10.0 mi East 9.2 mph - N/A   Clear
2:35 AM 64.4 °F 32.0 °F 30% 29.93 in 10.0 mi East 10.4 mph - N/A   Clear
2:55 AM 64.4 °F 32.0 °F 30% 29.93 in 10.0 mi East 10.4 mph - N/A   Clear
3:15 AM 64.4 °F 32.0 °F 30% 29.92 in 10.0 mi East 10.4 mph - N/A   Clear
3:55 AM 64.4 °F 30.2 °F 28% 29.92 in 10.0 mi East 9.2 mph - N/A   Clear
4:15 AM 64.4 °F 30.2 °F 28% 29.92 in 10.0 mi East 9.2 mph - N/A   Clear
4:35 AM 64.4 °F 30.2 °F 28% 29.92 in 10.0 mi East 5.8 mph - N/A   Clear
4:55 AM 62.6 °F 30.2 °F 30% 29.92 in 10.0 mi East 4.6 mph - N/A   Clear
5:15 AM 64.4 °F 30.2 °F 28% 29.91 in 10.0 mi East 5.8 mph - N/A   Clear
5:35 AM 62.6 °F 28.4 °F 27% 29.91 in 10.0 mi East 8.1 mph - N/A   Clear
5:55 AM 62.6 °F 28.4 °F 27% 29.91 in 10.0 mi East 6.9 mph - N/A   Clear
6:15 AM 62.6 °F 28.4 °F 27% 29.91 in 10.0 mi East 3.5 mph 11.5 mph N/A   Clear
6:35 AM 62.6 °F 28.4 °F 27% 29.91 in 10.0 mi East 3.5 mph - N/A   Clear
6:55 AM 62.6 °F 28.4 °F 27% 29.91 in 10.0 mi East 8.1 mph - N/A   Clear
7:15 AM 64.4 °F 28.4 °F 26% 29.91 in 10.0 mi Calm Calm - N/A   Clear
7:35 AM 64.4 °F 28.4 °F 26% 29.91 in 10.0 mi East 8.1 mph - N/A   Clear
7:55 AM 64.4 °F 28.4 °F 26% 29.91 in 10.0 mi Calm Calm - N/A   Clear
8:15 AM 66.2 °F 30.2 °F 26% 29.92 in 10.0 mi Calm Calm - N/A   Clear
8:35 AM 68.0 °F 30.2 °F 24% 29.92 in 10.0 mi Calm Calm - N/A   Clear
8:55 AM 69.8 °F 32.0 °F 25% 29.93 in 10.0 mi Calm Calm - N/A   Clear
9:15 AM 71.6 °F 32.0 °F 23% 29.93 in 10.0 mi East 6.9 mph - N/A   Clear
9:35 AM 71.6 °F 33.8 °F 25% 29.93 in 9.0 mi ESE 4.6 mph - N/A   Clear
9:55 AM 73.4 °F 33.8 °F 23% 29.93 in 10.0 mi ESE 6.9 mph - N/A   Clear
10:15 AM 75.2 °F 33.8 °F 22% 29.93 in 10.0 mi Calm Calm - N/A   Clear
10:35 AM 77.0 °F 32.0 °F 19% 29.93 in 10.0 mi Calm Calm - N/A   Clear
10:55 AM 78.8 °F 33.8 °F 20% 29.93 in 10.0 mi Calm Calm - N/A   Clear
11:15 AM 78.8 °F 32.0 °F 18% 29.93 in 10.0 mi Calm Calm - N/A   Clear
11:35 AM 80.6 °F 33.8 °F 18% 29.92 in 10.0 mi Calm Calm - N/A   Clear
11:55 AM 80.6 °F 33.8 °F 18% 29.92 in 10.0 mi Calm Calm - N/A   Clear
12:15 PM 80.6 °F 33.8 °F 18% 29.91 in 10.0 mi Calm Calm - N/A   Clear
12:35 PM 82.4 °F 35.6 °F 19% 29.91 in 10.0 mi Calm Calm - N/A   Clear
12:55 PM 82.4 °F 35.6 °F 19% 29.90 in 10.0 mi Calm Calm - N/A   Clear
1:15 PM 82.4 °F 35.6 °F 19% 29.90 in 10.0 mi Variable 4.6 mph - N/A   Clear
1:35 PM 80.6 °F 33.8 °F 18% 29.89 in 10.0 mi Calm Calm - N/A   Clear
1:55 PM 82.4 °F 35.6 °F 19% 29.89 in 10.0 mi Calm Calm - N/A   Clear
2:15 PM 82.4 °F 37.4 °F 20% 29.89 in 10.0 mi Variable 5.8 mph - N/A   Clear
2:35 PM 80.6 °F 39.2 °F 23% 29.88 in 10.0 mi Calm Calm - N/A   Clear
2:55 PM 80.6 °F 39.2 °F 23% 29.88 in 10.0 mi Calm Calm - N/A   Clear
3:15 PM 80.6 °F 39.2 °F 23% 29.88 in 10.0 mi Calm Calm - N/A   Clear
3:35 PM 80.6 °F 39.2 °F 23% 29.88 in 10.0 mi Calm Calm - N/A   Clear
3:55 PM 80.6 °F 39.2 °F 23% 29.87 in 10.0 mi Calm Calm - N/A   Clear
4:15 PM 80.6 °F 37.4 °F 21% 29.87 in 10.0 mi Calm Calm - N/A   Clear
4:35 PM 82.4 °F 37.4 °F 20% 29.86 in 10.0 mi Calm Calm - N/A   Clear
4:55 PM 80.6 °F 37.4 °F 21% 29.86 in 10.0 mi Calm Calm - N/A   Clear
5:15 PM 80.6 °F 37.4 °F 21% 29.85 in 10.0 mi Calm Calm - N/A   Clear
5:35 PM 78.8 °F 35.6 °F 21% 29.85 in 10.0 mi Calm Calm - N/A   Clear
5:55 PM 77.0 °F 35.6 °F 22% 29.85 in 10.0 mi Calm Calm - N/A   Clear
6:15 PM 77.0 °F 37.4 °F 24% 29.85 in 10.0 mi Calm Calm - N/A   Clear
6:35 PM 75.2 °F 39.2 °F 27% 29.84 in 10.0 mi Calm Calm - N/A   Clear
6:55 PM 71.6 °F 39.2 °F 31% 29.84 in 10.0 mi Calm Calm - N/A   Clear
7:15 PM 68.0 °F 39.2 °F 35% 29.84 in 10.0 mi Calm Calm - N/A   Clear
7:35 PM 64.4 °F 39.2 °F 40% 29.84 in 10.0 mi Calm Calm - N/A   Clear
7:55 PM 66.2 °F 39.2 °F 37% 29.84 in 10.0 mi Calm Calm - N/A   Clear
8:15 PM 68.0 °F 39.2 °F 35% 29.84 in 10.0 mi Calm Calm - N/A   Clear
8:35 PM 68.0 °F 37.4 °F 33% 29.84 in 10.0 mi Calm Calm - N/A   Clear
8:55 PM 68.0 °F 39.2 °F 35% 29.84 in 10.0 mi Calm Calm - N/A   Clear
9:15 PM 68.0 °F 39.2 °F 35% 29.83 in 10.0 mi Calm Calm - N/A   Clear
9:35 PM 68.0 °F 39.2 °F 35% 29.83 in 10.0 mi Calm Calm - N/A   Clear
9:55 PM 66.2 °F 41.0 °F 40% 29.84 in 10.0 mi ESE 5.8 mph - N/A   Clear
10:15 PM 64.4 °F 41.0 °F 42% 29.84 in 10.0 mi Calm Calm - N/A   Clear
10:35 PM 64.4 °F 41.0 °F 42% 29.84 in 10.0 mi ESE 6.9 mph - N/A   Clear
10:55 PM 66.2 °F 41.0 °F 40% 29.84 in 10.0 mi ESE 5.8 mph - N/A   Clear
11:15 PM 64.4 °F 41.0 °F 42% 29.84 in 10.0 mi East 4.6 mph - N/A   Clear
11:35 PM 62.6 °F 41.0 °F 45% 29.84 in 10.0 mi ESE 5.8 mph - N/A   Clear
11:55 PM 64.4 °F 39.2 °F 40% 29.82 in 10.0 mi ESE 11.5 mph - N/A   Clear